Time,TemperatureF,DewpointF,PressureIn,WindDirection,WindDirectionDegrees,WindSpeedMPH,WindSpeedGustMPH,Humidity,HourlyPrecipIn,Conditions,Clouds,dailyrainin,SoftwareType,DateUTC
2013-09-13 00:14:00,71.0,70.0,29.75,SE,141,0.0,0.0,97,0.00,,,0.10,,2013-09-13 04:14:00,
2013-09-13 00:25:00,71.0,70.0,29.75,SE,141,0.0,0.0,97,0.00,,,0.10,,2013-09-13 04:25:00,
2013-09-13 00:54:00,71.0,70.0,29.73,SE,141,0.0,0.0,97,0.00,,,0.10,,2013-09-13 04:54:00,
2013-09-13 01:13:00,71.0,70.0,29.73,SE,141,0.0,0.0,97,0.00,,,0.10,,2013-09-13 05:13:00,
2013-09-13 01:22:00,71.0,70.0,29.73,SE,141,0.0,0.0,97,0.00,,,0.10,,2013-09-13 05:22:00,
2013-09-13 01:53:00,71.0,70.0,29.73,SE,141,0.0,0.0,97,0.00,,,0.10,,2013-09-13 05:53:00,
2013-09-13 02:12:00,70.0,69.0,29.73,SE,141,0.0,0.0,98,0.00,,,0.10,,2013-09-13 06:12:00,
2013-09-13 02:22:00,70.0,69.0,29.73,SE,141,0.0,0.0,98,0.00,,,0.10,,2013-09-13 06:22:00,
2013-09-13 02:52:00,70.0,69.0,29.72,SE,141,0.0,0.0,98,0.01,,,0.11,,2013-09-13 06:52:00,
2013-09-13 03:22:00,70.0,69.0,29.72,SE,141,0.0,0.0,98,0.01,,,0.11,,2013-09-13 07:22:00,
2013-09-13 03:52:00,70.0,69.0,29.70,SE,141,0.0,0.0,98,0.00,,,0.11,,2013-09-13 07:52:00,
2013-09-13 04:11:00,69.0,68.0,29.70,SE,141,0.0,0.0,98,0.00,,,0.11,,2013-09-13 08:11:00,
2013-09-13 04:22:00,69.0,68.0,29.70,SE,141,0.0,0.0,98,0.00,,,0.11,,2013-09-13 08:22:00,
2013-09-13 04:52:00,69.0,68.0,29.70,SE,141,0.0,0.0,98,0.00,,,0.11,,2013-09-13 08:52:00,
2013-09-13 05:12:00,69.0,68.0,29.70,SE,141,0.0,0.0,98,0.00,,,0.11,,2013-09-13 09:12:00,
2013-09-13 05:21:00,69.0,68.0,29.70,SE,141,0.0,0.0,98,0.00,,,0.11,,2013-09-13 09:21:00,
2013-09-13 05:54:00,69.0,68.0,29.70,SE,141,0.0,0.0,98,0.00,,,0.11,,2013-09-13 09:54:00,
2013-09-13 06:23:00,68.0,67.0,29.69,SE,141,0.0,0.0,98,0.00,,,0.11,,2013-09-13 10:23:00,
2013-09-13 06:53:00,68.0,68.0,29.71,SE,141,0.0,0.0,99,0.00,,,0.11,,2013-09-13 10:53:00,
2013-09-13 07:12:00,69.0,69.0,29.72,SE,141,0.0,0.0,99,0.00,,,0.11,,2013-09-13 11:12:00,
2013-09-13 07:22:00,69.0,69.0,29.72,SE,141,0.0,0.0,99,0.00,,,0.11,,2013-09-13 11:22:00,
2013-09-13 07:52:00,69.0,69.0,29.73,SE,141,0.0,0.0,99,0.00,,,0.11,,2013-09-13 11:52:00,
2013-09-13 08:12:00,70.0,70.0,29.73,SE,141,0.0,0.0,99,0.00,,,0.11,,2013-09-13 12:12:00,
2013-09-13 08:22:00,70.0,70.0,29.73,SE,141,0.0,0.0,99,0.00,,,0.11,,2013-09-13 12:22:00,
2013-09-13 08:52:00,70.0,70.0,29.74,SE,141,0.0,1.0,99,0.00,,,0.11,,2013-09-13 12:52:00,
2013-09-13 09:11:00,70.0,70.0,29.74,North,10,0.0,3.0,99,0.00,,,0.11,,2013-09-13 13:11:00,
2013-09-13 09:22:00,71.0,70.0,29.74,West,273,0.0,0.0,98,0.00,,,0.11,,2013-09-13 13:22:00,
2013-09-13 09:52:00,73.0,69.0,29.75,WNW,282,0.0,6.0,86,0.00,,,0.11,,2013-09-13 13:52:00,
2013-09-13 10:22:00,76.0,66.0,29.75,NE,42,3.0,11.0,71,0.00,,,0.11,,2013-09-13 14:22:00,
2013-09-13 10:52:00,77.0,65.0,29.75,NW,326,3.0,11.0,67,0.00,,,0.11,,2013-09-13 14:52:00,
2013-09-13 11:22:00,78.0,65.0,29.74,NE,51,2.0,10.0,65,0.00,,,0.11,,2013-09-13 15:22:00,
2013-09-13 11:53:00,80.0,65.0,29.75,NW,309,0.0,7.0,60,0.00,,,0.11,,2013-09-13 15:53:00,
2013-09-13 12:12:00,80.0,65.0,29.74,West,272,3.0,7.0,60,0.00,,,0.11,,2013-09-13 16:12:00,
2013-09-13 12:24:00,82.0,65.0,29.73,NW,322,1.0,10.0,57,0.00,,,0.11,,2013-09-13 16:24:00,
2013-09-13 12:54:00,82.0,64.0,29.73,West,276,0.0,5.0,54,0.00,,,0.11,,2013-09-13 16:54:00,
2013-09-13 13:24:00,83.0,64.0,29.72,WNW,299,0.0,5.0,53,0.00,,,0.11,,2013-09-13 17:24:00,
2013-09-13 13:53:00,84.0,63.0,29.72,NE,41,0.0,7.0,49,0.00,,,0.11,,2013-09-13 17:53:00,
2013-09-13 14:22:00,85.0,63.0,29.71,NE,52,0.0,10.0,48,0.00,,,0.11,,2013-09-13 18:22:00,
2013-09-13 14:52:00,83.0,62.0,29.70,NW,312,0.0,4.0,49,0.00,,,0.11,,2013-09-13 18:52:00,
2013-09-13 15:11:00,84.0,61.0,29.70,NW,311,2.0,11.0,46,0.00,,,0.11,,2013-09-13 19:11:00,
2013-09-13 15:22:00,85.0,64.0,29.70,NNE,33,0.0,6.0,50,0.00,,,0.11,,2013-09-13 19:22:00,
2013-09-13 15:52:00,84.0,64.0,29.70,NNW,344,0.0,3.0,51,0.00,,,0.11,,2013-09-13 19:52:00,
2013-09-13 16:11:00,84.0,60.0,29.70,North,353,4.0,8.0,45,0.00,,,0.11,,2013-09-13 20:11:00,
2013-09-13 16:22:00,85.0,61.0,29.69,NW,307,0.0,1.0,45,0.00,,,0.11,,2013-09-13 20:22:00,
2013-09-13 16:52:00,85.0,61.0,29.70,NW,321,0.0,4.0,45,0.00,,,0.11,,2013-09-13 20:52:00,
2013-09-13 17:22:00,85.0,61.0,29.70,WNW,289,0.0,1.0,45,0.00,,,0.11,,2013-09-13 21:22:00,
2013-09-13 17:54:00,83.0,62.0,29.70,ESE,102,1.0,3.0,49,0.00,,,0.11,,2013-09-13 21:54:00,
2013-09-13 18:13:00,81.0,59.0,29.70,NNW,328,0.0,5.0,48,0.00,,,0.11,,2013-09-13 22:13:00,
2013-09-13 18:24:00,81.0,61.0,29.71,NW,305,0.0,3.0,50,0.00,,,0.11,,2013-09-13 22:24:00,
2013-09-13 18:53:00,78.0,59.0,29.72,NE,37,0.0,6.0,52,0.00,,,0.11,,2013-09-13 22:53:00,
2013-09-13 19:22:00,77.0,59.0,29.72,WNW,297,0.0,0.0,53,0.00,,,0.10,,2013-09-13 23:22:00,
2013-09-13 19:53:00,75.0,59.0,29.73,WNW,303,0.0,0.0,57,0.00,,,0.10,,2013-09-13 23:53:00,
2013-09-13 20:12:00,74.0,59.0,29.74,WNW,303,0.0,0.0,59,0.00,,,0.10,,2013-09-14 00:12:00,
2013-09-13 20:22:00,73.0,59.0,29.75,WNW,303,0.0,0.0,61,0.00,,,0.01,,2013-09-14 00:22:00,
2013-09-13 20:53:00,71.0,58.0,29.76,WNW,303,0.0,0.0,64,0.00,,,0.01,,2013-09-14 00:53:00,
2013-09-13 21:12:00,70.0,58.0,29.77,WNW,303,0.0,0.0,66,0.00,,,0.01,,2013-09-14 01:12:00,
2013-09-13 21:22:00,70.0,60.0,29.78,WNW,303,0.0,0.0,70,0.00,,,0.01,,2013-09-14 01:22:00,
2013-09-13 21:42:00,69.0,59.0,29.79,WNW,303,0.0,0.0,71,0.00,,,0.01,,2013-09-14 01:42:00,
2013-09-13 21:52:00,68.0,58.0,29.79,WNW,303,0.0,0.0,70,0.00,,,0.01,,2013-09-14 01:52:00,
2013-09-13 22:12:00,68.0,57.0,29.80,WNW,303,0.0,1.0,69,0.00,,,0.01,,2013-09-14 02:12:00,
2013-09-13 22:22:00,68.0,58.0,29.80,North,10,0.0,0.0,70,0.00,,,0.01,,2013-09-14 02:22:00,
2013-09-13 22:42:00,69.0,58.0,29.80,NE,37,0.0,1.0,68,0.00,,,0.01,,2013-09-14 02:42:00,
2013-09-13 22:52:00,69.0,58.0,29.80,NNE,18,0.0,4.0,68,0.00,,,0.01,,2013-09-14 02:52:00,
2013-09-13 23:22:00,69.0,58.0,29.81,NNE,30,0.0,0.0,67,0.00,,,0.01,,2013-09-14 03:22:00,
2013-09-13 23:55:00,68.0,57.0,29.81,North,352,0.0,0.0,69,0.00,,,0.01,,2013-09-14 03:55:00,